Regional Weather Roundup
Issued by NWS Cleveland, OH

Home | Current Version | Previous Version | Graphics & Text | Print | Product List | Glossary On
Versions: 1 2 3 4 5 6 7 8 9 10 11 12 13 14 15 16 17 18 19 20 21 22 23 24 25 26 27 28 29 30 31 32 33 34 35 36 37 38 39 40 41 42 43 44 45 46 47 48 49 50
000
ASUS41 KCLE 062010
RWRCLE
OHIO REGIONAL WEATHER ROUNDUP
NATIONAL WEATHER SERVICE CLEVELAND, OH
400 PM EDT FRI MAY 06 2016

NOTE: "FAIR" INDICATES FEW OR NO CLOUDS BELOW 12,000 FEET WITH NO
SIGNIFICANT WEATHER AND/OR OBSTRUCTIONS TO VISIBILITY.

OHZ001>008-015>018-024>027-034-035-043-044-062100-
   NORTHWEST OHIO

CITY           SKY/WX    TMP DP  RH WIND       PRES   REMARKS
DEFIANCE       SUNNY     70  41  34 VRB7      29.90F
FINDLAY        MOSUNNY   70  38  31 NW9       29.89F
TOLEDO EXPRESS SUNNY     71  39  31 NW6       29.88F
TOLEDO EXEC    MOSUNNY   70  40  33 VRB5G18   29.89F
LIMA           SUNNY     67  44  43 NW12G17   29.90F
$$

OHZ009>014-019>023-028>033-038-089-062100-
   NORTHEAST OHIO

CITY           SKY/WX    TMP DP  RH WIND       PRES   REMARKS
CLE-HOPKINS    SUNNY     68  39  34 NW18      29.88F
CLE-LAKEFRONT  SUNNY     58  49  72 W14       29.85F
CUY CO. ARPT   MOSUNNY   66  45  45 NW12      29.87F
LORAIN-ELYRIA  SUNNY     65  43  44 N16       29.88F
ASHTABULA      SUNNY     64  37  36 N10       29.84F
AKRON-CANTON   MOSUNNY   66  38  35 N18G29    29.83F
WOOSTER        MOSUNNY   65  37  35 N17G29    29.86F
MANSFIELD      MOSUNNY   65  40  39 N17       29.88F
YOUNGSTOWN     PTSUNNY   67  36  31 N29G36    29.80F
$$

OHZ042-051>053-060>062-070>072-077>081-062100-
  SOUTHWEST OHIO

CITY           SKY/WX    TMP DP  RH WIND       PRES   REMARKS
CINC-COVINGTON MOSUNNY   69  41  36 N10       29.92F
CINC-LUNKEN    PTSUNNY   70  46  42 NW13      29.91F
HAMILTON       PTSUNNY   70  46  42 N10       29.92F
DAYTON         MOSUNNY   68  42  38 NW9G20    29.92F
WRIGHT-PAT AFB MOSUNNY   68  41  37 NW12      29.90F
DAYTON GENERAL PTSUNNY   70  42  36 NW14G21   29.90F
WILMINGTON     MOSUNNY   69  41  36 N12G18    29.89F
$$

OHZ036-037-039>041-045>050-054>059-063>069-073>076-082>088-062100-
  CENTRAL AND SOUTHEAST OHIO

CITY           SKY/WX    TMP DP  RH WIND       PRES   REMARKS
COLUMBUS       MOSUNNY   69  40  34 NW13G22   29.86F
OSU AIRPORT    PTSUNNY   69  43  38 N16G24    29.87F
BOLTON FIELD   MOSUNNY   68  43  40 NW13G21   29.88F
RICKENBACK AFB PTSUNNY   68  40  36 N15G22    29.86F
NEWARK         MOSUNNY   70  39  32 N14       29.85F
MARION         MOSUNNY   68  41  37 N18       29.89F
LANCASTER      MOSUNNY   70  41  34 N20G28    29.86F
ZANESVILLE     PTSUNNY   68  40  35 NW17G26   29.82F
NEW PHILLY     MOSUNNY   68  36  30 N22G30    29.82F
$$




USA.gov is the U.S. government's official web portal to all federal, state and local government web resources and services.